| time (UTC) | temp C | wind direction | speed KPH | gust KPH | rain 1hr cm | rain 24hr cm | rain mn cm | humidity % | barometer mb |
| 20260508214958 | 14 | 235 | 1.6 | 3.2 | 0.00 | 0.00 | 0.00 | 64 | 1016.5 |
| 20260508213959 | 14 | 252 | 1.6 | 3.2 | 0.00 | 0.00 | 0.00 | 62 | 1016.6 |
| 20260508212959 | 15 | 240 | 1.6 | 3.2 | 0.00 | 0.00 | 0.00 | 60 | 1016.2 |
| 20260508211958 | 15 | 260 | 1.6 | 3.2 | 0.00 | 0.00 | 0.00 | 64 | 1016.2 |
| 20260508210001 | 15 | 246 | 1.6 | 3.2 | 0.00 | 0.00 | 0.00 | 61 | 1016.3 |
| 20260508204959 | 15 | 236 | 1.6 | 3.2 | 0.00 | 0.00 | 0.00 | 61 | 1016.4 |
| 20260508204000 | 15 | 224 | 1.6 | 3.2 | 0.00 | 0.00 | 0.00 | 62 | 1016.4 |
| 20260508203000 | 15 | 240 | 0.0 | 3.2 | 0.00 | 0.00 | 0.00 | 62 | 1016.5 |
| 20260508201958 | 15 | 236 | 1.6 | 3.2 | 0.00 | 0.00 | 0.00 | 61 | 1016.5 |
| 20260508201000 | 15 | 272 | 1.6 | 1.6 | 0.00 | 0.00 | 0.00 | 60 | 1016.7 |
| 20260508200001 | 15 | 240 | 1.6 | 4.8 | 0.00 | 0.00 | 0.00 | 59 | 1016.9 |
| 20260508193959 | 15 | 242 | 1.6 | 3.2 | 0.00 | 0.00 | 0.00 | 60 | 1016.9 |
| 20260508192959 | 15 | 269 | 1.6 | 4.8 | 0.00 | 0.00 | 0.00 | 62 | 1017.3 |
| 20260508192000 | 15 | 339 | 1.6 | 3.2 | 0.00 | 0.00 | 0.00 | 64 | 1017.4 |
| 20260508190958 | 15 | 57 | 0.0 | 3.2 | 0.00 | 0.00 | 0.00 | 66 | 1017.6 |
| 20260508185959 | 15 | 56 | 1.6 | 3.2 | 0.00 | 0.00 | 0.00 | 63 | 1017.9 |
| 20260508184957 | 14 | 62 | 1.6 | 4.8 | 0.00 | 0.00 | 0.00 | 65 | 1017.8 |
| 20260508183958 | 14 | 322 | 1.6 | 3.2 | 0.00 | 0.00 | 0.00 | 59 | 1018.0 |
| 20260508182958 | 15 | 293 | 1.6 | 3.2 | 0.00 | 0.00 | 0.00 | 60 | 1018.0 |
| 20260508180958 | 15 | 214 | 1.6 | 3.2 | 0.00 | 0.00 | 0.00 | 60 | 1018.2 |
| 20260508175958 | 15 | 29 | 1.6 | 4.8 | 0.00 | 0.00 | 0.00 | 62 | 1018.2 |
| 20260508174957 | 15 | 358 | 1.6 | 6.4 | 0.00 | 0.00 | 0.00 | 60 | 1018.5 |
| 20260508173958 | 15 | 69 | 0.0 | 4.8 | 0.00 | 0.00 | 0.00 | 68 | 1018.5 |
| 20260508170959 | 14 | 108 | 1.6 | 3.2 | 0.00 | 0.00 | 0.00 | 62 | 1018.7 |
| 20260508170001 | 15 | 37 | 1.6 | 4.8 | 0.00 | 0.00 | 0.00 | 61 | 1018.9 |
| 20260508164959 | 15 | 326 | 0.0 | 3.2 | 0.00 | 0.00 | 0.00 | 57 | 1019.1 |
| 20260508163958 | 16 | 336 | 1.6 | 6.4 | 0.00 | 0.00 | 0.00 | 52 | 1019.2 |
| 20260508163000 | 16 | 70 | 3.2 | 6.4 | 0.00 | 0.00 | 0.00 | 54 | 1019.3 |
| 20260508161002 | 16 | 77 | 1.6 | 6.4 | 0.00 | 0.00 | 0.00 | 57 | 1019.4 |
| 20260508160000 | 17 | 300 | 1.6 | 6.4 | 0.00 | 0.00 | 0.00 | 51 | 1019.5 |
| 20260508155000 | 17 | 25 | 1.6 | 4.8 | 0.00 | 0.00 | 0.00 | 56 | 1019.7 |
| 20260508153959 | 16 | 54 | 0.0 | 4.8 | 0.00 | 0.00 | 0.00 | 55 | 1019.7 |
| 20260508152959 | 16 | 249 | 0.0 | 1.6 | 0.00 | 0.00 | 0.00 | 52 | 1019.8 |
| 20260508151000 | 17 | 238 | 0.0 | 1.6 | 0.00 | 0.00 | 0.00 | 49 | 1019.7 |
| 20260508144957 | 16 | 246 | 0.0 | 3.2 | 0.00 | 0.00 | 0.00 | 51 | 1019.7 |
| 20260508143957 | 15 | 197 | 0.0 | 3.2 | 0.00 | 0.00 | 0.00 | 53 | 1019.8 |
| 20260508142958 | 16 | 57 | 1.6 | 3.2 | 0.00 | 0.00 | 0.00 | 52 | 1019.8 |
| 20260508141957 | 16 | 243 | 0.0 | 3.2 | 0.00 | 0.00 | 0.00 | 51 | 1019.9 |
| 20260508140959 | 17 | 18 | 0.0 | 3.2 | 0.00 | 0.00 | 0.00 | 52 | 1019.9 |
| 20260508135958 | 17 | 316 | 0.0 | 1.6 | 0.00 | 0.00 | 0.00 | 54 | 1019.9 |
| 20260508134958 | 16 | 53 | 0.0 | 1.6 | 0.00 | 0.00 | 0.00 | 53 | 1019.8 |
| 20260508133958 | 15 | 113 | 0.0 | 1.6 | 0.00 | 0.00 | 0.00 | 58 | 1019.8 |
| 20260508132957 | 14 | 40 | 1.6 | 3.2 | 0.00 | 0.00 | 0.00 | 60 | 1019.8 |
| 20260508131959 | 15 | 56 | 0.0 | 3.2 | 0.00 | 0.00 | 0.00 | 58 | 1019.8 |
| 20260508130957 | 13 | 61 | 0.0 | 1.6 | 0.00 | 0.00 | 0.00 | 54 | 1019.7 |
| 20260508125958 | 13 | 60 | 1.6 | 3.2 | 0.00 | 0.00 | 0.00 | 64 | 1019.6 |
| 20260508124957 | 12 | 71 | 0.0 | 1.6 | 0.00 | 0.00 | 0.00 | 66 | 1019.4 |
| 20260508123958 | 13 | 82 | 0.0 | 0.0 | 0.00 | 0.00 | 0.00 | 65 | 1019.4 |
| 20260508122958 | 14 | 95 | 0.0 | 0.0 | 0.00 | 0.00 | 0.00 | 55 | 1019.3 |
| 20260508120958 | 13 | 86 | 0.0 | 0.0 | 0.00 | 0.00 | 0.00 | 61 | 1019.1 |
| 20260508115958 | 12 | 86 | 0.0 | 0.0 | 0.00 | 0.18 | 0.00 | 59 | 1019.0 |
| 20260508114958 | 10 | 86 | 0.0 | 0.0 | 0.00 | 0.18 | 0.00 | 64 | 1018.8 |
| 20260508113958 | 9 | 86 | 0.0 | 0.0 | 0.00 | 0.18 | 0.00 | 66 | 1018.6 |
| 20260508112959 | 8 | 86 | 0.0 | 0.0 | 0.00 | 0.18 | 0.00 | 67 | 1018.4 |
| 20260508111958 | 8 | 86 | 0.0 | 0.0 | 0.00 | 0.18 | 0.00 | 69 | 1018.4 |
| 20260508110958 | 7 | 86 | 0.0 | 0.0 | 0.00 | 0.18 | 0.00 | 70 | 1018.2 |
| 20260508110000 | 7 | 86 | 0.0 | 0.0 | 0.00 | 0.18 | 0.00 | 71 | 1018.0 |
| 20260508104959 | 6 | 86 | 0.0 | 0.0 | 0.00 | 0.20 | 0.00 | 73 | 1017.9 |
| 20260508104000 | 6 | 86 | 0.0 | 0.0 | 0.00 | 0.20 | 0.00 | 73 | 1017.9 |
| 20260508102959 | 6 | 86 | 0.0 | 0.0 | 0.00 | 0.20 | 0.00 | 74 | 1017.7 |
| 20260508101958 | 6 | 86 | 0.0 | 0.0 | 0.00 | 0.20 | 0.00 | 75 | 1017.5 |
| 20260508100959 | 6 | 86 | 0.0 | 0.0 | 0.00 | 0.20 | 0.00 | 76 | 1017.4 |
| 20260508093959 | 6 | 86 | 0.0 | 0.0 | 0.00 | 0.20 | 0.00 | 78 | 1017.1 |
| 20260508091959 | 6 | 86 | 0.0 | 0.0 | 0.00 | 0.20 | 0.00 | 78 | 1017.1 |
| 20260508085959 | 6 | 264 | 0.0 | 0.0 | 0.00 | 0.20 | 0.00 | 78 | 1017.1 |
| 20260508084958 | 6 | 264 | 0.0 | 0.0 | 0.00 | 0.20 | 0.00 | 78 | 1017.0 |
| 20260508083958 | 6 | 264 | 0.0 | 0.0 | 0.00 | 0.20 | 0.00 | 76 | 1016.9 |
| 20260508082958 | 7 | 264 | 0.0 | 0.0 | 0.00 | 0.20 | 0.00 | 75 | 1016.7 |
| 20260508081958 | 7 | 264 | 0.0 | 0.0 | 0.00 | 0.20 | 0.00 | 74 | 1016.8 |
| 20260508080957 | 7 | 264 | 0.0 | 0.0 | 0.00 | 0.20 | 0.00 | 72 | 1016.7 |
| 20260508075957 | 7 | 264 | 0.0 | 0.0 | 0.00 | 0.25 | 0.00 | 73 | 1016.6 |
| 20260508073958 | 7 | 264 | 0.0 | 0.0 | 0.00 | 0.25 | 0.00 | 71 | 1016.6 |
| 20260508072958 | 7 | 264 | 0.0 | 0.0 | 0.00 | 0.25 | 0.00 | 71 | 1016.4 |
| 20260508071957 | 7 | 264 | 0.0 | 0.0 | 0.00 | 0.25 | 0.00 | 72 | 1016.2 |
| 20260508070958 | 7 | 264 | 0.0 | 0.0 | 0.00 | 0.25 | 0.00 | 74 | 1016.3 |
| 20260508065958 | 7 | 269 | 0.0 | 0.0 | 0.00 | 0.25 | 0.00 | 73 | 1016.3 |
| 20260508064957 | 7 | 269 | 0.0 | 0.0 | 0.00 | 0.25 | 0.00 | 74 | 1016.3 |
| 20260508062958 | 7 | 283 | 0.0 | 0.0 | 0.00 | 0.25 | 0.00 | 76 | 1016.3 |
| 20260508061958 | 7 | 264 | 0.0 | 3.2 | 0.00 | 0.25 | 0.00 | 77 | 1016.2 |
| 20260508060958 | 7 | 260 | 0.0 | 1.6 | 0.00 | 0.25 | 0.00 | 78 | 1016.2 |
| 20260508054959 | 7 | 248 | 0.0 | 3.2 | 0.00 | 0.33 | 0.00 | 77 | 1016.2 |
| 20260508054000 | 7 | 267 | 0.0 | 0.0 | 0.00 | 0.33 | 0.00 | 77 | 1016.2 |
| 20260508052959 | 7 | 113 | 0.0 | 1.6 | 0.00 | 0.33 | 0.00 | 77 | 1016.3 |
| 20260508051959 | 7 | 277 | 0.0 | 3.2 | 0.00 | 0.33 | 0.00 | 77 | 1016.2 |
| 20260508050959 | 8 | 222 | 0.0 | 3.2 | 0.00 | 0.33 | 0.00 | 76 | 1016.0 |
| 20260508050000 | 8 | 267 | 1.6 | 6.4 | 0.00 | 0.33 | 0.00 | 76 | 1016.1 |
| 20260508044959 | 8 | 276 | 1.6 | 6.4 | 0.00 | 0.46 | 0.00 | 76 | 1016.1 |
| 20260508043959 | 8 | 304 | 1.6 | 8.0 | 0.00 | 0.46 | 0.00 | 77 | 1015.9 |
| 20260508042959 | 8 | 273 | 0.0 | 3.2 | 0.00 | 0.46 | 0.00 | 77 | 1015.8 |
| 20260508041957 | 7 | 315 | 0.0 | 4.8 | 0.00 | 0.46 | 0.00 | 78 | 1015.9 |
| 20260508040958 | 7 | 288 | 1.6 | 3.2 | 0.00 | 0.46 | 0.00 | 79 | 1015.8 |
| 20260508040004 | 7 | 269 | 1.6 | 6.4 | 0.00 | 0.46 | 0.00 | 80 | 1015.9 |
| 20260508034000 | 8 | 299 | 1.6 | 3.2 | 0.00 | 0.48 | 0.46 | 81 | 1016.0 |
| 20260508033000 | 8 | 281 | 1.6 | 4.8 | 0.00 | 0.48 | 0.46 | 81 | 1016.2 |
| 20260508032000 | 8 | 316 | 1.6 | 3.2 | 0.00 | 0.48 | 0.46 | 81 | 1016.1 |
| 20260508031000 | 8 | 328 | 3.2 | 4.8 | 0.00 | 0.48 | 0.46 | 81 | 1016.1 |
| 20260508022958 | 8 | 293 | 1.6 | 6.4 | 0.00 | 0.53 | 0.46 | 80 | 1015.3 |
| 20260508020958 | 8 | 4 | 3.2 | 8.0 | 0.00 | 0.53 | 0.46 | 80 | 1015.0 |
| 20260508014959 | 8 | 287 | 3.2 | 11.3 | 0.00 | 0.56 | 0.46 | 79 | 1015.0 |
| 20260508014000 | 8 | 316 | 3.2 | 11.3 | 0.00 | 0.56 | 0.46 | 79 | 1014.9 |
| 20260508013000 | 8 | 166 | 3.2 | 8.0 | 0.00 | 0.56 | 0.46 | 80 | 1014.7 |
| 20260508011959 | 8 | 314 | 3.2 | 12.9 | 0.00 | 0.56 | 0.46 | 79 | 1014.5 |
| 20260508011000 | 8 | 215 | 1.6 | 9.7 | 0.00 | 0.56 | 0.46 | 78 | 1014.5 |
| 20260508010001 | 8 | 323 | 3.2 | 8.0 | 0.00 | 0.56 | 0.46 | 78 | 1014.3 |
| 20260508004959 | 8 | 207 | 1.6 | 6.4 | 0.00 | 0.76 | 0.46 | 77 | 1014.3 |
| 20260508003959 | 8 | 72 | 1.6 | 8.0 | 0.00 | 0.76 | 0.46 | 77 | 1014.3 |
| 20260508003000 | 9 | 158 | 1.6 | 8.0 | 0.00 | 0.76 | 0.46 | 77 | 1014.3 |
| 20260508001959 | 9 | 194 | 3.2 | 11.3 | 0.00 | 0.76 | 0.46 | 76 | 1013.9 |
| 20260508000959 | 9 | 270 | 1.6 | 4.8 | 0.00 | 0.76 | 0.46 | 76 | 1013.6 |
| 20260507234958 | 10 | 278 | 0.0 | 4.8 | 0.00 | 1.04 | 0.46 | 77 | 1013.5 |
| 20260507233959 | 10 | 294 | 1.6 | 4.8 | 0.00 | 1.04 | 0.46 | 77 | 1013.8 |
| 20260507232959 | 10 | 280 | 1.6 | 6.4 | 0.00 | 1.04 | 0.46 | 78 | 1013.7 |
| 20260507230959 | 10 | 263 | 3.2 | 6.4 | 0.00 | 1.04 | 0.46 | 78 | 1013.4 |
| 20260507230001 | 11 | 316 | 3.2 | 11.3 | 0.00 | 1.04 | 0.46 | 77 | 1013.2 |
| 20260507225000 | 11 | 315 | 3.2 | 6.4 | 0.00 | 1.07 | 0.46 | 76 | 1013.1 |
| 20260507224000 | 11 | 307 | 3.2 | 9.7 | 0.00 | 1.07 | 0.46 | 76 | 1013.0 |
| 20260507223000 | 12 | 307 | 4.8 | 19.3 | 0.00 | 1.07 | 0.46 | 75 | 1013.0 |
| 20260507221959 | 12 | 290 | 4.8 | 12.9 | 0.00 | 1.07 | 0.46 | 74 | 1012.6 |
| 20260507221000 | 12 | 305 | 4.8 | 16.1 | 0.00 | 1.07 | 0.46 | 73 | 1012.4 |